Location: Chèvreville
(49.1099°N, 2.8495°E)
Time: 07:19:00
(UTC+00:00)

Tiangong - Visible Passes

Search period start: 08 November 2024 00:00
Search period end: 18 November 2024 00:00
Orbit: 383 x 397 km, 41.5° (Epoch: 07 November)

Date Brightness Start Highest point End Pass type
(mag) Time Alt. Az. Time Alt. Az. Time Alt. Az.
11 Nov 0.8 18:40:33 10° SSW 18:40:56 12° SSW 18:40:56 12° SSW visible
12 Nov 0.2 17:42:53 10° SSW 17:44:38 14° SSE 17:45:23 13° SSE visible
13 Nov 0.6 16:45:49 10° SSE 16:46:27 10° SSE 16:47:03 10° SE visible
13 Nov 0.1 18:20:13 10° SW 18:21:59 19° S 18:21:59 19° S visible
14 Nov 0.1 17:22:03 10° SSW 17:24:16 17° SSE 17:26:11 11° SE visible
14 Nov 1.1 18:58:08 10° SW 18:58:27 12° SW 18:58:27 12° SW visible
15 Nov -0.2 17:59:36 10° SW 18:02:05 21° S 18:02:33 20° SSE visible
16 Nov 0.0 17:01:05 10° SW 17:03:29 20° S 17:05:54 10° SE visible
16 Nov 0.6 18:37:34 10° SW 18:38:50 16° SW 18:38:50 16° SW visible
17 Nov 0.1 17:38:41 10° SW 17:41:06 20° S 17:42:47 14° SSE visible
